Time,TemperatureF,DewpointF,PressureIn,WindDirection,WindDirectionDegrees,WindSpeedMPH,WindSpeedGustMPH,Humidity,HourlyPrecipIn,Conditions,Clouds,dailyrainin,SoftwareType,DateUTC
2013-09-19 00:00:00,37.0,-99.9,-100.00,North,-999,-999.0,-999.0,-999,-99.99,,,0.01,,2013-09-19 06:00:00,
2013-09-19 00:52:00,37.0,-99.9,-100.00,North,-999,-999.0,-999.0,-999,-99.99,,,0.01,,2013-09-19 06:52:00,
2013-09-19 02:00:00,35.0,-99.9,-100.00,North,-999,-999.0,-999.0,-999,-99.99,,,0.02,,2013-09-19 08:00:00,
2013-09-19 02:52:00,35.0,-99.9,-100.00,North,-999,-999.0,-999.0,-999,-99.99,,,0.02,,2013-09-19 08:52:00,
2013-09-19 03:00:00,35.0,-99.9,-100.00,NNE,27,1.0,5.0,-999,-99.99,,,0.02,,2013-09-19 09:00:00,
2013-09-19 03:53:00,35.0,-99.9,-100.00,NNE,27,1.0,5.0,-999,-99.99,,,0.02,,2013-09-19 09:53:00,
2013-09-19 04:00:00,35.0,-99.9,-100.00,SE,142,1.0,3.0,-999,-99.99,,,0.01,,2013-09-19 10:00:00,
2013-09-19 04:52:00,35.0,-99.9,-100.00,SE,142,1.0,3.0,-999,-99.99,,,0.01,,2013-09-19 10:52:00,
2013-09-19 05:00:00,34.0,-99.9,-100.00,East,89,2.0,4.0,-999,-99.99,,,0.01,,2013-09-19 11:00:00,
2013-09-19 05:53:00,34.0,-99.9,-100.00,East,89,2.0,4.0,-999,-99.99,,,0.01,,2013-09-19 11:53:00,
2013-09-19 07:00:00,33.0,-99.9,-100.00,NNE,17,2.0,4.0,-999,-99.99,,,0.01,,2013-09-19 13:00:00,
2013-09-19 07:52:00,33.0,-99.9,-100.00,NNE,17,2.0,4.0,-999,-99.99,,,0.01,,2013-09-19 13:52:00,
2013-09-19 08:00:00,35.0,-99.9,-100.00,ENE,66,1.0,4.0,-999,-99.99,,,0.01,,2013-09-19 14:00:00,
2013-09-19 08:52:00,35.0,-99.9,-100.00,ENE,66,1.0,4.0,-999,-99.99,,,0.01,,2013-09-19 14:52:00,
2013-09-19 09:00:00,37.0,-99.9,-100.00,SSE,157,1.0,4.0,-999,-99.99,,,0.01,,2013-09-19 15:00:00,
2013-09-19 09:54:00,37.0,-99.9,-100.00,SSE,157,1.0,4.0,-999,-99.99,,,0.01,,2013-09-19 15:54:00,
2013-09-19 10:00:00,41.0,-99.9,-100.00,South,180,2.0,5.0,-999,-99.99,,,0.01,,2013-09-19 16:00:00,
2013-09-19 10:53:00,41.0,-99.9,-100.00,South,180,2.0,5.0,-999,-99.99,,,0.01,,2013-09-19 16:53:00,
2013-09-19 11:00:00,46.0,-99.9,-100.00,North,-999,-999.0,-999.0,-999,-99.99,,,0.01,,2013-09-19 17:00:00,
2013-09-19 11:53:00,46.0,-99.9,-100.00,North,-999,-999.0,-999.0,-999,-99.99,,,0.01,,2013-09-19 17:53:00,
2013-09-19 12:00:00,48.0,-99.9,-100.00,WSW,247,2.0,6.0,-999,-99.99,,,0.01,,2013-09-19 18:00:00,
2013-09-19 12:52:00,48.0,-99.9,-100.00,WSW,247,2.0,6.0,-999,-99.99,,,0.01,,2013-09-19 18:52:00,
2013-09-19 13:00:00,50.0,-99.9,-100.00,North,-999,-999.0,-999.0,-999,-99.99,,,0.01,,2013-09-19 19:00:00,
2013-09-19 13:53:00,50.0,-99.9,-100.00,North,-999,-999.0,-999.0,-999,-99.99,,,0.01,,2013-09-19 19:53:00,
2013-09-19 14:00:00,51.0,-99.9,-100.00,North,-999,-999.0,-999.0,-999,-99.99,,,0.01,,2013-09-19 20:00:00,
2013-09-19 14:52:00,51.0,-99.9,-100.00,North,-999,-999.0,-999.0,-999,-99.99,,,0.01,,2013-09-19 20:52:00,
2013-09-19 16:00:00,50.0,-99.9,-100.00,North,-999,-999.0,-999.0,-999,-99.99,,,0.00,,2013-09-19 22:00:00,
2013-09-19 16:53:00,50.0,-99.9,-100.00,North,-999,-999.0,-999.0,-999,-99.99,,,0.00,,2013-09-19 22:53:00,
2013-09-19 17:00:00,48.0,-99.9,-100.00,North,-999,-999.0,-999.0,-999,-99.99,,,0.00,,2013-09-19 23:00:00,
2013-09-19 17:53:00,48.0,-99.9,-100.00,North,-999,-999.0,-999.0,-999,-99.99,,,0.00,,2013-09-19 23:53:00,
2013-09-19 18:00:00,43.0,-99.9,-100.00,North,-999,-999.0,-999.0,-999,-99.99,,,0.00,,2013-09-20 00:00:00,
2013-09-19 18:52:00,43.0,-99.9,-100.00,North,-999,-999.0,-999.0,-999,-99.99,,,0.00,,2013-09-20 00:52:00,
2013-09-19 19:00:00,42.0,-99.9,-100.00,North,-999,-999.0,-999.0,-999,-99.99,,,0.00,,2013-09-20 01:00:00,
2013-09-19 19:53:00,42.0,-99.9,-100.00,North,-999,-999.0,-999.0,-999,-99.99,,,0.00,,2013-09-20 01:53:00,
2013-09-19 20:00:00,38.0,-99.9,-100.00,NE,39,1.0,5.0,-999,-99.99,,,0.00,,2013-09-20 02:00:00,
2013-09-19 20:53:00,38.0,-99.9,-100.00,NE,39,1.0,5.0,-999,-99.99,,,0.00,,2013-09-20 02:53:00,
2013-09-19 21:00:00,38.0,-99.9,-100.00,North,-999,-999.0,-999.0,-999,-99.99,,,0.00,,2013-09-20 03:00:00,
2013-09-19 21:56:00,38.0,-99.9,-100.00,North,-999,-999.0,-999.0,-999,-99.99,,,0.00,,2013-09-20 03:56:00,